Tracking 18793 objects as of 25-September-2017
HD Live streaming from Space Station
objects crossing your sky now

ASTRA 1H

Track ASTRA 1H now!
ASTRA 1H is classified as:


NORAD ID: 25785
Int'l Code: 1999-033A
Perigee: 35,780.9 km
Apogee: 35,803.8 km
Inclination: 4.0 °
Period: 1,436.0 minutes
Semi major axis: 42163 km
RCS: 0.8136 m2 (medium)
Launch date: June 18, 1999
Source: SOCIETE EUROPEENNE DES SATELLITES (SES)
Launch site: TYURATAM MISSILE AND SPACE COMPLEX (TTMTR)

Direct-to-home tv; multimedia; broadcasting; 32 Ku-band for first five years, 28 after; Europe
aabbcc
Your satellite tracking list
Your tracking list is empty





NASA's NSSDC Master Catalog

Two Line Element Set (TLE):
1 25785U 99033A   17267.78660354 +.00000121 +00000-0 +00000-0 0  9997
2 25785 004.0112 068.9331 0002727 113.3666 148.2363 01.00276762019458
Source of the keplerian elements: AFSPC